Location: Trois-Rivi�res
(46.3500°N, 72.5500°W)
Time: 13:27:38
(UTC-04:00)

OTV 5 (USA 277) - Visible Passes

Search period start: 25 June 2018 00:00
Search period end: 05 July 2018 00:00
Orbit: 313 x 320 km, 54.5° (Epoch: 21 June)

Date Brightness Start Highest point End Pass type
(mag) Time Alt. Az. Time Alt. Az. Time Alt. Az.
25 Jun ? 00:28:10 10° NW 00:30:05 40° NW 00:30:05 40° NW visible
25 Jun ? 21:34:12 10° NW 21:35:50 15° N 21:37:28 10° NE visible
25 Jun ? 23:08:30 10° NW 23:10:49 25° NNE 23:12:34 14° ENE visible
26 Jun ? 00:42:38 10° WNW 00:43:23 17° WNW 00:43:23 17° WNW visible
26 Jun ? 21:48:46 10° NNW 21:50:34 16° N 21:52:22 10° NE visible
26 Jun ? 23:22:46 10° NW 23:25:24 44° NNE 23:25:57 37° ENE visible
27 Jun ? 22:03:08 10° NW 22:05:16 20° NNE 22:07:24 10° ENE visible
27 Jun ? 23:37:08 10° WNW 23:39:24 57° WNW 23:39:24 57° WNW visible
28 Jun ? 22:17:24 10° NW 22:19:53 31° NNE 22:22:03 12° E visible
28 Jun ? 23:51:45 10° WNW 23:52:54 20° W 23:52:54 20° W visible
29 Jun ? 22:31:42 10° NW 22:34:24 65° NNE 22:35:36 28° ESE visible
30 Jun ? 22:46:10 10° WNW 22:48:48 48° SW 22:49:12 43° S visible
01 Jul ? 21:26:19 10° NW 21:28:55 43° NNE 21:31:31 10° ESE visible
01 Jul ? 23:01:00 10° W 23:02:51 19° SW 23:02:51 19° SW visible
02 Jul ? 21:40:41 10° WNW 21:43:23 81° SSW 21:45:42 13° SE visible
03 Jul ? 21:55:16 10° WNW 21:57:43 30° SW 21:59:27 15° SSE visible
04 Jul ? 22:10:34 10° WSW 22:11:54 13° SW 22:13:13 10° SSW visible
